| time (UTC) | temp F | wind direction | speed MPH | gust MPH | rain 1hr in | rain 24hr in | rain mn in | humidity % | barometer mb |
| 20260831024534 | 66 | 315 | 0.0 | 2.0 | 0.00 | 0.00 | 0.00 | 69 | 1012.3 |
| 20260831023029 | 67 | 128 | 1.0 | 3.0 | 0.00 | 0.00 | 0.00 | 67 | 1012.4 |
| 20260831021530 | 68 | 290 | 1.0 | 6.0 | 0.00 | 0.00 | 0.00 | 65 | 1012.7 |
| 20260831020028 | 68 | 326 | 1.0 | 8.0 | 0.00 | 0.00 | 0.00 | 64 | 1012.9 |
| 20260831014529 | 69 | 165 | 1.0 | 4.0 | 0.00 | 0.00 | 0.00 | 62 | 1012.9 |
| 20260831013027 | 69 | 286 | 0.0 | 3.0 | 0.00 | 0.00 | 0.00 | 60 | 1013.1 |
| 20260831011536 | 69 | 199 | 1.0 | 6.0 | 0.00 | 0.00 | 0.00 | 60 | 1013.3 |
| 20260831010022 | 70 | 213 | 2.0 | 4.0 | 0.00 | 0.00 | 0.00 | 59 | 1013.3 |
| 20260831004521 | 70 | 252 | 2.0 | 7.0 | 0.00 | 0.00 | 0.00 | 59 | 1013.6 |
| 20260831003028 | 70 | 98 | 1.0 | 5.0 | 0.00 | 0.00 | 0.00 | 58 | 1013.5 |
| 20260831001516 | 71 | 255 | 2.0 | 6.0 | 0.00 | 0.00 | 0.00 | 58 | 1013.6 |
| 20260831000013 | 71 | 261 | 2.0 | 5.0 | 0.00 | 0.00 | 0.00 | 56 | 1013.9 |
| 20260830234509 | 71 | 230 | 1.0 | 6.0 | 0.00 | 0.00 | 0.00 | 55 | 1013.7 |
| 20260830233005 | 72 | 254 | 1.0 | 6.0 | 0.00 | 0.00 | 0.00 | 55 | 1014.1 |
| 20260830231502 | 71 | 250 | 1.0 | 5.0 | 0.00 | 0.00 | 0.00 | 56 | 1014.2 |
| 20260830230057 | 72 | 209 | 2.0 | 4.0 | 0.00 | 0.00 | 0.00 | 55 | 1014.5 |
| 20260830224556 | 71 | 276 | 1.0 | 5.0 | 0.00 | 0.00 | 0.00 | 57 | 1014.6 |
| 20260830223108 | 71 | 163 | 1.0 | 5.0 | 0.00 | 0.00 | 0.00 | 58 | 1014.7 |
| 20260830221549 | 71 | 283 | 1.0 | 3.0 | 0.00 | 0.00 | 0.00 | 57 | 1014.9 |
| 20260830220042 | 71 | 166 | 1.0 | 7.0 | 0.00 | 0.00 | 0.00 | 58 | 1015.1 |
| 20260830214539 | 71 | 234 | 2.0 | 4.0 | 0.00 | 0.00 | 0.00 | 57 | 1015.2 |
| 20260830213036 | 71 | 341 | 1.0 | 9.0 | 0.00 | 0.00 | 0.00 | 57 | 1015.2 |
| 20260830211532 | 70 | 309 | 1.0 | 8.0 | 0.00 | 0.00 | 0.00 | 57 | 1015.4 |
| 20260830210027 | 70 | 295 | 1.0 | 5.0 | 0.00 | 0.00 | 0.00 | 57 | 1015.6 |
| 20260830204522 | 70 | 33 | 2.0 | 8.0 | 0.00 | 0.00 | 0.00 | 57 | 1015.7 |
| 20260830203023 | 70 | 355 | 1.0 | 9.0 | 0.00 | 0.00 | 0.00 | 56 | 1015.8 |
| 20260830201515 | 69 | 288 | 2.0 | 6.0 | 0.00 | 0.00 | 0.00 | 57 | 1016.0 |
| 20260830200031 | 68 | 173 | 1.0 | 8.0 | 0.00 | 0.00 | 0.00 | 59 | 1016.0 |
| 20260830194509 | 68 | 190 | 1.0 | 5.0 | 0.00 | 0.00 | 0.00 | 58 | 1016.0 |
| 20260830193006 | 68 | 156 | 1.0 | 5.0 | 0.00 | 0.00 | 0.00 | 62 | 1016.2 |
| 20260830191505 | 67 | 315 | 1.0 | 6.0 | 0.00 | 0.00 | 0.00 | 59 | 1016.5 |
| 20260830190007 | 67 | 5 | 1.0 | 3.0 | 0.00 | 0.00 | 0.00 | 62 | 1016.4 |
| 20260830184501 | 66 | 219 | 1.0 | 5.0 | 0.00 | 0.00 | 0.00 | 63 | 1016.5 |
| 20260830183111 | 66 | 116 | 1.0 | 8.0 | 0.00 | 0.00 | 0.00 | 64 | 1016.6 |
| 20260830181555 | 64 | 109 | 1.0 | 3.0 | 0.00 | 0.00 | 0.00 | 70 | 1016.8 |
| 20260830180053 | 63 | 29 | 1.0 | 3.0 | 0.00 | 0.00 | 0.00 | 73 | 1016.8 |
| 20260830174604 | 62 | 39 | 0.0 | 3.0 | 0.00 | 0.01 | 0.00 | 73 | 1016.8 |
| 20260830173048 | 62 | 30 | 0.0 | 3.0 | 0.00 | 0.01 | 0.00 | 76 | 1017.1 |
| 20260830171547 | 61 | 243 | 0.0 | 2.0 | 0.00 | 0.01 | 0.00 | 78 | 1017.0 |
| 20260830170041 | 60 | 315 | 1.0 | 3.0 | 0.00 | 0.01 | 0.00 | 82 | 1017.0 |
| 20260830164537 | 58 | 34 | 0.0 | 2.0 | 0.00 | 0.01 | 0.00 | 84 | 1017.0 |
| 20260830163036 | 57 | 28 | 0.0 | 2.0 | 0.00 | 0.01 | 0.00 | 90 | 1017.1 |
| 20260830161529 | 55 | 28 | 0.0 | 2.0 | 0.00 | 0.01 | 0.00 | 95 | 1017.0 |
| 20260830160034 | 53 | 27 | 0.0 | 2.0 | 0.00 | 0.01 | 0.00 | 95 | 1017.1 |
| 20260830154522 | 52 | 27 | 0.0 | 2.0 | 0.00 | 0.01 | 0.00 | 96 | 1017.3 |
| 20260830153019 | 51 | 9 | 0.0 | 2.0 | 0.00 | 0.01 | 0.00 | 96 | 1017.2 |
| 20260830151519 | 51 | 9 | 0.0 | 2.0 | 0.00 | 0.01 | 0.00 | 96 | 1017.3 |
| 20260830150017 | 50 | 96 | 0.0 | 2.0 | 0.00 | 0.01 | 0.00 | 95 | 1017.2 |
| 20260830144513 | 50 | 125 | 0.0 | 1.0 | 0.00 | 0.01 | 0.00 | 95 | 1017.2 |
| 20260830143010 | 49 | 125 | 0.0 | 1.0 | 0.00 | 0.01 | 0.00 | 95 | 1017.1 |
| 20260830141508 | 49 | 125 | 0.0 | 1.0 | 0.00 | 0.01 | 0.00 | 95 | 1017.0 |
| 20260830140007 | 49 | 125 | 0.0 | 1.0 | 0.00 | 0.01 | 0.00 | 95 | 1016.9 |
| 20260830134504 | 49 | 125 | 0.0 | 1.0 | 0.00 | 0.01 | 0.00 | 95 | 1016.8 |
| 20260830133004 | 49 | 125 | 0.0 | 0.0 | 0.00 | 0.01 | 0.00 | 95 | 1016.8 |
| 20260830131501 | 48 | 125 | 0.0 | 0.0 | 0.00 | 0.01 | 0.00 | 95 | 1016.8 |
| 20260830124558 | 48 | 125 | 0.0 | 1.0 | 0.00 | 0.01 | 0.00 | 94 | 1016.7 |
| 20260830123057 | 47 | 125 | 0.0 | 0.0 | 0.00 | 0.01 | 0.00 | 94 | 1016.7 |
| 20260830121556 | 47 | 125 | 0.0 | 0.0 | 0.00 | 0.01 | 0.00 | 94 | 1016.5 |
| 20260830120058 | 48 | 125 | 0.0 | 0.0 | 0.00 | 0.01 | 0.00 | 94 | 1016.5 |
| 20260830114556 | 48 | 125 | 0.0 | 0.0 | 0.00 | 0.02 | 0.00 | 94 | 1016.6 |
| 20260830113059 | 48 | 125 | 0.0 | 0.0 | 0.00 | 0.02 | 0.00 | 94 | 1016.6 |
| 20260830111552 | 48 | 125 | 0.0 | 0.0 | 0.00 | 0.02 | 0.00 | 94 | 1016.6 |
| 20260830110049 | 48 | 125 | 0.0 | 0.0 | 0.00 | 0.02 | 0.00 | 94 | 1016.6 |
| 20260830104603 | 48 | 125 | 0.0 | 0.0 | 0.00 | 0.02 | 0.00 | 93 | 1016.6 |
| 20260830103046 | 49 | 125 | 0.0 | 1.0 | 0.00 | 0.02 | 0.00 | 93 | 1016.5 |
| 20260830101545 | 49 | 125 | 0.0 | 0.0 | 0.00 | 0.02 | 0.00 | 93 | 1016.3 |
| 20260830100042 | 49 | 125 | 0.0 | 0.0 | 0.00 | 0.02 | 0.00 | 93 | 1016.5 |
| 20260830094541 | 50 | 125 | 0.0 | 0.0 | 0.00 | 0.02 | 0.00 | 92 | 1016.3 |
| 20260830093042 | 50 | 125 | 0.0 | 1.0 | 0.00 | 0.02 | 0.00 | 92 | 1016.3 |
| 20260830091536 | 50 | 125 | 0.0 | 1.0 | 0.00 | 0.02 | 0.00 | 92 | 1016.4 |
| 20260830090034 | 51 | 125 | 0.0 | 1.0 | 0.00 | 0.02 | 0.00 | 91 | 1016.4 |
| 20260830084532 | 52 | 125 | 0.0 | 0.0 | 0.00 | 0.02 | 0.00 | 91 | 1016.5 |
| 20260830083050 | 52 | 125 | 0.0 | 0.0 | 0.00 | 0.02 | 0.00 | 90 | 1016.6 |
| 20260830081527 | 53 | 125 | 0.0 | 0.0 | 0.00 | 0.02 | 0.00 | 90 | 1016.6 |
| 20260830080025 | 53 | 125 | 0.0 | 1.0 | 0.00 | 0.02 | 0.00 | 90 | 1016.6 |
| 20260830074523 | 53 | 125 | 0.0 | 1.0 | 0.00 | 0.02 | 0.00 | 90 | 1016.6 |
| 20260830073023 | 53 | 125 | 0.0 | 1.0 | 0.00 | 0.02 | 0.00 | 90 | 1016.6 |
| 20260830071525 | 53 | 125 | 0.0 | 1.0 | 0.00 | 0.02 | 0.00 | 88 | 1016.5 |
| 20260830070022 | 54 | 125 | 0.0 | 2.0 | 0.00 | 0.02 | 0.00 | 87 | 1016.6 |
| 20260830064517 | 54 | 125 | 0.0 | 1.0 | 0.00 | 0.02 | 0.02 | 86 | 1016.5 |
| 20260830063017 | 54 | 125 | 0.0 | 1.0 | 0.00 | 0.02 | 0.02 | 86 | 1016.5 |
| 20260830061516 | 54 | 125 | 0.0 | 1.0 | 0.00 | 0.02 | 0.02 | 85 | 1016.5 |
| 20260830060018 | 55 | 125 | 0.0 | 1.0 | 0.00 | 0.02 | 0.02 | 83 | 1016.6 |
| 20260830054515 | 56 | 125 | 0.0 | 1.0 | 0.00 | 0.02 | 0.02 | 82 | 1016.8 |
| 20260830053023 | 57 | 125 | 0.0 | 0.0 | 0.00 | 0.02 | 0.02 | 81 | 1016.6 |
| 20260830051519 | 57 | 125 | 0.0 | 1.0 | 0.00 | 0.02 | 0.02 | 79 | 1016.6 |
| 20260830050111 | 57 | 126 | 0.0 | 2.0 | 0.00 | 0.02 | 0.02 | 79 | 1016.6 |
| 20260830044514 | 58 | 81 | 0.0 | 1.0 | 0.00 | 0.02 | 0.02 | 77 | 1016.4 |
| 20260830043013 | 59 | 336 | 0.0 | 1.0 | 0.00 | 0.02 | 0.02 | 76 | 1016.4 |
| 20260830041517 | 59 | 336 | 0.0 | 1.0 | 0.00 | 0.02 | 0.02 | 75 | 1016.3 |
| 20260830040006 | 59 | 336 | 0.0 | 2.0 | 0.00 | 0.02 | 0.02 | 75 | 1016.2 |
| 20260830034506 | 60 | 336 | 0.0 | 2.0 | 0.00 | 0.02 | 0.02 | 72 | 1016.1 |
| 20260830033003 | 61 | 338 | 0.0 | 2.0 | 0.00 | 0.02 | 0.02 | 70 | 1015.7 |
| 20260830031502 | 62 | 318 | 1.0 | 4.0 | 0.00 | 0.02 | 0.02 | 69 | 1015.5 |
| 20260830030002 | 62 | 9 | 1.0 | 3.0 | 0.00 | 0.02 | 0.02 | 68 | 1015.5 |